Regional Weather Roundup
Issued by NWS

Home | Current Version | Previous Version | Text Only | Print | Product List | Glossary On
Versions: 1 2 3 4 5 6 7 8 9 10 11 12 13 14 15 16 17 18 19 20 21 22 23 24 25 26 27 28
000
ASUS44 KBMX 301910
RWRAL

ALABAMA REGIONAL WEATHER ROUNDUP
NATIONAL WEATHER SERVICE BIRMINGHAM AL
200 PM CDT THU MAR 30 2017

NOTE: "FAIR" INDICATES FEW OR NO CLOUDS BELOW 12,000 FEET
WITH NO SIGNIFICANT WEATHER AND/OR OBSTRUCTIONS TO VISIBILITY.

THE REMARK "TC" DENOTES TEMPERATURE IN DEGREES CELSIUS.

ALZ001>011-014-016>018-020-302000-
NORTH ALABAMA

CITY           SKY/WX    TMP DP  RH WIND       PRES   REMARKS
MUSCLE SHOALS  CLOUDY    77  53  43 SW24G35   29.74F
HUNTSVILLE     CLOUDY    76  61  59 S24G37    29.76F
DECATUR        CLOUDY    73  60  63 S21G30    29.76F
HALEYVILLE     PTSUNNY   75  57  53 SW25G32   29.78F
GADSDEN        PTSUNNY   78  61  55 S14G26    29.82F
$$

ALZ012-013-022-023-030>036-040>044-302000-
WEST CENTRAL ALABAMA

CITY           SKY/WX    TMP DP  RH WIND       PRES   REMARKS
TUSCALOOSA     CLOUDY    76  57  51 S20G28    29.82S
$$

ALZ015-024>027-033>036-040>044-302000-
CENTRAL ALABAMA

CITY           SKY/WX    TMP DP  RH WIND       PRES   REMARKS
BIRMINGHAM     CLOUDY    77  59  53 S17G28    29.84F
MONTGOMERY     CLOUDY    80  61  52 S9G18     29.85F
SHELBY CO ARPT MOSUNNY   77  63  61 S14G22    29.83F
MAXWELL AFB    CLOUDY    80  63  56 S14       29.85F
GREENVILLE     TSTM      71  65  81 S9        29.88R
$$

ALZ019-021-028-029-037-038-045>048-302000-
EAST CENTRAL ALABAMA

CITY           SKY/WX    TMP DP  RH WIND       PRES   REMARKS
ANNISTON       MOSUNNY   79  59  50 S16G26    29.83F
ALEXANDER CITY MOSUNNY   78  60  53 S12G18    29.86F
AUBURN         MOSUNNY   80  59  48 S14G20    29.89F
$$

ALZ051>064-302000-
SOUTHWEST ALABAMA

CITY           SKY/WX    TMP DP  RH WIND       PRES   REMARKS
MOBILE         CLOUDY    65  61  87 NW6       29.89S
BROOKLEY FIELD LGT RAIN  67  65  93 VRB3      29.90R
EVERGREEN      CLOUDY    76  65  68 S5        29.85F
$$

ALZ049-050-065>069-302000-
SOUTHEAST ALABAMA

CITY           SKY/WX    TMP DP  RH WIND       PRES   REMARKS
DOTHAN         MOSUNNY   83  61  47 S10       29.93F
OZARK          MOSUNNY   84  60  44 SE15G22   29.88F
TROY           CLOUDY    80  62  54 S8        29.87F
EUFAULA        FAIR      87  57  35 S9G17     29.87F
$$




USA.gov is the U.S. government's official web portal to all federal, state and local government web resources and services.